KOSEN 1
1 49402U 21102H   25319.83618396  .00010813  00000-0  46131-3 0  9990
2 49402  97.3518   1.2931 0013410 237.0431 122.9517 15.23007497221504
HO-113
1 50466U 21131B   25319.84927022  .00001294  00000-0  41594-3 0  9995
2 50466  98.5067  48.4058 0004509  33.2917 326.8555 14.41059675204383
SNUGLITE 2
1 52899U 22065F   25319.66447838  .00002489  00000-0  48690-3 0  9997
2 52899  98.1903 100.3550 0007006 342.7296  17.3666 14.63727678179754
UmKA 1 (RS40S)
1 57172U 23091G   25319.84594654  .00010365  00000-0  51635-3 0  9990
2 57172  97.5387  14.4320 0014635 138.4627 221.7722 15.17664438131617
CubeBel-2 (EU11S)
1 57175U 23091K   25319.79259212  .00016609  00000-0  70501-3 0  9995
2 57175  97.5386  16.6344 0012023 141.3987 218.8111 15.23098050131752
SONATE-2
1 59112U 24043Q   25319.36933690  .00031417  00000-0  70845-3 0  9993
2 59112  97.5314  94.6437 0008802 264.1282  95.8962 15.43149830 94757
MO-122
1 60209U 24125G   25319.84720898  .00038111  00000-0  82945-3 0  9992
2 60209  97.2562 170.2391 0013926 286.1594  73.8121 15.44100146 76459
GRBBeta
1 60237U 24128C   25319.76870993  .00007430  00000-0  52537-3 0  9993
2 60237  61.9904 243.8800 0057005  91.0835 269.6789 15.04392544 74136
Curium One
1 60242U 24128H   25319.48639704  .00012123  00000-0  76321-3 0  9993
2 60242  61.9796 240.3662 0056931  87.7837 272.9774 15.08215931 74173
ROBUSTA-3A
1 60243U 24128J   25319.81023093  .00013359  00000-0  85332-3 0  9993
2 60243  61.9873 240.6468 0056746  85.3799 275.3772 15.07625798 74206
CatSat
1 60246U 24125J   25319.56527294  .00040035  00000-0  10466-2 0  9993
2 60246  97.2367 167.2856 0033996 244.9441 114.8274 15.38049324 74341
HYPERVIEW-1G (RS66S)
1 61772U 24199AP  25319.88869525  .00050632  00000-0  10634-2 0  9991
2 61772  97.3246 189.0393 0010859 351.4732   8.6330 15.45129427101469
AO-123
1 61781U 24199AY  25319.88509382  .00012142  00000-0  40359-3 0  9995
2 61781  97.3281 185.6400 0015039 359.5312   0.5912 15.31220419101237
ZIMSAT 2
1 61783U 24199BA  25319.85351304  .00163992  00000-0  17934-2 0  9995
2 61783  97.3154 191.7054 0007211 354.6710   5.4471 15.62746733104796
HADES-R (SO-124)
1 62690U 25009CK  25318.17392810  .00137020  00000-0  24345-2 0  9992
2 62690  97.3934  39.9050 0003103 249.6253 110.4665 15.49685990 46340
HYDRA-T
1 62692U 25009CM  25318.17686883  .00146455  00000-0  25106-2 0  9998
2 62692  97.3940  40.0531 0002898 247.4769 112.6177 15.50669153 46352
JINJUSat 1B
1 63210U 25052A   25319.63958646  .00021338  00000-0  84297-3 0  9993
2 63210  97.4212 211.9873 0005793 106.6969 253.4905 15.25511737 37455
NUSHSAT 1
1 63211U 25052B   25319.65181722  .00023995  00000-0  92300-3 0  9994
2 63211  97.4199 212.0871 0005603 108.8867 251.2979 15.26377881 37460
TEVEL2-4
1 63213U 25052D   25319.64160231  .00022898  00000-0  89673-3 0  9997
2 63213  97.4113 211.6841 0004470 116.8804 243.2892 15.25796031 37456
TEVEL2-5
1 63214U 25052E   25319.25235567  .00021151  00000-0  83067-3 0  9992
2 63214  97.4108 211.2900 0004461 119.7038 240.4644 15.25716557 37396
TEVEL2-6
1 63215U 25052F   25319.65232609  .00022579  00000-0  88725-3 0  9992
2 63215  97.4114 211.6747 0004437 117.8396 242.3292 15.25685820 37451
TEVEL2-1
1 63217U 25052H   25319.23025700  .00019473  00000-0  77327-3 0  9995
2 63217  97.4082 211.0899 0004194 128.0712 232.0905 15.25365779 37382
TEVEL2-3
1 63218U 25052J   25319.22980554  .00019826  00000-0  78680-3 0  9997
2 63218  97.4085 211.0936 0004168 129.1244 231.0365 15.25382579 37387
TEVEL2-2
1 63219U 25052K   25319.23103998  .00019660  00000-0  78066-3 0  9992
2 63219  97.4090 211.0906 0004174 128.8912 231.2699 15.25365871 37384
TEVEL2-9
1 63237U 25052AD  25319.69299612  .00020680  00000-0  85554-3 0  9995
2 63237  97.4152 211.2924 0007269 159.3226 200.8307 15.23959291 37426
TEVEL2-7
1 63238U 25052AE  25319.63874992  .00020558  00000-0  85393-3 0  9995
2 63238  97.4158 211.2178 0007293 160.0575 200.0948 15.23825181 37419
TEVEL2-8
1 63239U 25052AF  25319.77524962  .00021863  00000-0  90832-3 0  9994
2 63239  97.4157 211.3386 0007341 160.1724 199.9800 15.23804601 37431
HYDRA-W
1 63490U 25052BL  25318.22151029  .00068848  00000-0  19020-2 0  9995
2 63490  97.4068 211.6982 0008994 147.6929 212.4868 15.36760403 37337
HADES-ICM (SO-125)
1 63492U 25052BN  25319.22789531  .00059073  00000-0  17051-2 0  9995
2 63492  97.4095 212.5108 0009153 151.5114 208.6631 15.35433815 37470
Dragonfly
1 65729U 98067XH  25318.36094919  .00131042  00000-0  13930-2 0  9998
2 65729  51.6290 280.0391 0004901 125.5494 234.5957 15.63091881  8714
RSP-03
1 65732U 98067XL  25319.15163627  .00103587  00000-0  11670-2 0  9995
2 65732  51.6298 276.3206 0006427 105.1690 255.0014 15.61701998  8847
GHS-01
1 65733U 98067XM  25318.28165986  .00154368  00000-0  15665-2 0  9990
2 65733  51.6302 280.2627 0005386 122.3086 237.8431 15.64181916  8710
BOTAN
1 65942U 98067XP  25318.26806544  .00099589  00000-0  13576-2 0  9994
2 65942  51.6307 282.4197 0004695  72.5108 287.6396 15.56700686  5426
CEVROSAT1
1 98526C 25248E   25306.26352486  .00003971  00000+0  19360-3 0    07
2 98526  45.4084 255.8570 0001315 254.8982 118.2631 15.17600497    10
